Time,TemperatureF,DewpointF,PressureIn,WindDirection,WindDirectionDegrees,WindSpeedMPH,WindSpeedGustMPH,Humidity,HourlyPrecipIn,Conditions,Clouds,dailyrainin,SolarRadiationWatts/m^2,SoftwareType,DateUTC
2013-05-31 00:02:00,64.0,63.0,-100.00,SE,142,4.0,9.0,95,0.01,,,0.71,0.000000,,2013-05-31 05:02:00,
2013-05-31 00:12:00,64.0,63.0,-100.00,SE,142,4.0,9.0,95,0.01,,,0.71,0.000000,,2013-05-31 05:12:00,
2013-05-31 00:32:00,65.0,63.0,-100.00,SSE,162,4.0,10.0,94,0.00,,,0.70,0.000000,,2013-05-31 05:32:00,
2013-05-31 00:42:00,65.0,63.0,-100.00,SSE,162,4.0,10.0,94,0.00,,,0.70,0.000000,,2013-05-31 05:42:00,
2013-05-31 00:52:00,65.0,63.0,-100.00,SSE,162,4.0,10.0,94,0.00,,,0.70,0.000000,,2013-05-31 05:52:00,
2013-05-31 01:02:00,65.0,63.0,-100.00,SSE,162,4.0,10.0,94,0.00,,,0.70,0.000000,,2013-05-31 06:02:00,
2013-05-31 01:12:00,65.0,63.0,-100.00,SSE,162,4.0,10.0,94,0.00,,,0.70,0.000000,,2013-05-31 06:12:00,
2013-05-31 01:32:00,65.0,63.0,-100.00,SSE,166,5.0,12.0,93,0.00,,,0.70,0.000000,,2013-05-31 06:32:00,
2013-05-31 01:42:00,65.0,63.0,-100.00,SSE,166,5.0,12.0,93,0.00,,,0.70,0.000000,,2013-05-31 06:42:00,
2013-05-31 01:52:00,65.0,63.0,-100.00,SSE,166,5.0,12.0,93,0.00,,,0.70,0.000000,,2013-05-31 06:52:00,
2013-05-31 02:02:00,65.0,63.0,-100.00,SSE,166,5.0,12.0,93,0.00,,,0.70,0.000000,,2013-05-31 07:02:00,
2013-05-31 02:11:00,65.0,63.0,-100.00,SSE,166,5.0,12.0,93,0.00,,,0.70,0.000000,,2013-05-31 07:11:00,
2013-05-31 02:32:00,65.0,62.0,-100.00,SSE,166,4.0,12.0,91,0.00,,,0.53,0.000000,,2013-05-31 07:32:00,
2013-05-31 02:42:00,65.0,62.0,-100.00,SSE,166,4.0,12.0,91,0.00,,,0.53,0.000000,,2013-05-31 07:42:00,
2013-05-31 02:52:00,65.0,62.0,-100.00,SSE,166,4.0,12.0,91,0.00,,,0.53,0.000000,,2013-05-31 07:52:00,
2013-05-31 03:02:00,65.0,62.0,-100.00,SSE,166,4.0,12.0,91,0.00,,,0.53,0.000000,,2013-05-31 08:02:00,
2013-05-31 03:11:00,65.0,62.0,-100.00,SSE,166,4.0,12.0,91,0.00,,,0.53,0.000000,,2013-05-31 08:11:00,
2013-05-31 03:32:00,65.0,62.0,-100.00,SSE,159,6.0,12.0,89,0.00,,,0.22,0.000000,,2013-05-31 08:32:00,
2013-05-31 03:42:00,65.0,62.0,-100.00,SSE,159,6.0,12.0,89,0.00,,,0.22,0.000000,,2013-05-31 08:42:00,
2013-05-31 03:52:00,65.0,62.0,-100.00,SSE,159,6.0,12.0,89,0.00,,,0.22,0.000000,,2013-05-31 08:52:00,
2013-05-31 04:01:00,65.0,62.0,-100.00,SSE,159,6.0,12.0,89,0.00,,,0.22,0.000000,,2013-05-31 09:01:00,
2013-05-31 04:11:00,65.0,62.0,-100.00,SSE,159,6.0,12.0,89,0.00,,,0.22,0.000000,,2013-05-31 09:11:00,
2013-05-31 04:32:00,63.0,60.0,-100.00,SSE,147,3.0,12.0,91,0.00,,,0.22,0.000000,,2013-05-31 09:32:00,
2013-05-31 04:43:00,63.0,60.0,-100.00,SSE,147,3.0,12.0,91,0.00,,,0.22,0.000000,,2013-05-31 09:43:00,
2013-05-31 04:53:00,63.0,60.0,-100.00,SSE,147,3.0,12.0,91,0.00,,,0.22,0.000000,,2013-05-31 09:53:00,
2013-05-31 05:02:00,63.0,60.0,-100.00,SSE,147,3.0,12.0,91,0.00,,,0.22,0.000000,,2013-05-31 10:02:00,
2013-05-31 05:12:00,63.0,60.0,-100.00,SSE,147,3.0,12.0,91,0.00,,,0.22,0.000000,,2013-05-31 10:12:00,
2013-05-31 05:33:00,62.0,60.0,-100.00,SSE,158,3.0,8.0,93,0.00,,,0.22,0.000000,,2013-05-31 10:33:00,
2013-05-31 05:42:00,62.0,60.0,-100.00,SSE,158,3.0,8.0,93,0.00,,,0.22,0.000000,,2013-05-31 10:42:00,
2013-05-31 05:52:00,62.0,60.0,-100.00,SSE,158,3.0,8.0,93,0.00,,,0.22,0.000000,,2013-05-31 10:52:00,
2013-05-31 06:02:00,62.0,60.0,-100.00,SSE,158,3.0,8.0,93,0.00,,,0.22,0.000000,,2013-05-31 11:02:00,
2013-05-31 06:11:00,62.0,60.0,-100.00,SSE,158,3.0,8.0,93,0.00,,,0.22,0.000000,,2013-05-31 11:11:00,
2013-05-31 06:32:00,62.0,60.0,-100.00,SSE,159,4.0,10.0,93,0.00,,,0.22,21.000000,,2013-05-31 11:32:00,
2013-05-31 06:42:00,62.0,60.0,-100.00,SSE,159,4.0,10.0,93,0.00,,,0.22,21.000000,,2013-05-31 11:42:00,
2013-05-31 06:52:00,62.0,60.0,-100.00,SSE,159,4.0,10.0,93,0.00,,,0.22,21.000000,,2013-05-31 11:52:00,
2013-05-31 07:01:00,62.0,60.0,-100.00,SSE,159,4.0,10.0,93,0.00,,,0.22,21.000000,,2013-05-31 12:01:00,
2013-05-31 07:11:00,62.0,60.0,-100.00,SSE,159,4.0,10.0,93,0.00,,,0.22,21.000000,,2013-05-31 12:11:00,
2013-05-31 07:32:00,64.0,60.0,-100.00,SSE,160,7.0,19.0,86,0.00,,,0.22,98.000000,,2013-05-31 12:32:00,
2013-05-31 07:42:00,64.0,60.0,-100.00,SSE,160,7.0,19.0,86,0.00,,,0.22,98.000000,,2013-05-31 12:42:00,
2013-05-31 07:52:00,64.0,60.0,-100.00,SSE,160,7.0,19.0,86,0.00,,,0.22,98.000000,,2013-05-31 12:52:00,
2013-05-31 08:01:00,64.0,60.0,-100.00,SSE,160,7.0,19.0,86,0.00,,,0.22,98.000000,,2013-05-31 13:01:00,
2013-05-31 08:11:00,64.0,60.0,-100.00,SSE,160,7.0,19.0,86,0.00,,,0.22,98.000000,,2013-05-31 13:11:00,
2013-05-31 08:32:00,66.0,59.0,-100.00,SSE,159,8.0,15.0,77,0.00,,,0.22,262.000000,,2013-05-31 13:32:00,
2013-05-31 08:42:00,66.0,59.0,-100.00,SSE,159,8.0,15.0,77,0.00,,,0.22,262.000000,,2013-05-31 13:42:00,
2013-05-31 08:52:00,66.0,59.0,-100.00,SSE,159,8.0,15.0,77,0.00,,,0.22,262.000000,,2013-05-31 13:52:00,
2013-05-31 09:02:00,66.0,59.0,-100.00,SSE,159,8.0,15.0,77,0.00,,,0.22,262.000000,,2013-05-31 14:02:00,
2013-05-31 09:11:00,66.0,59.0,-100.00,SSE,159,8.0,15.0,77,0.00,,,0.22,262.000000,,2013-05-31 14:11:00,
2013-05-31 09:32:00,68.0,57.0,-100.00,SSE,151,8.0,20.0,69,0.00,,,0.22,301.000000,,2013-05-31 14:32:00,
2013-05-31 09:42:00,68.0,57.0,-100.00,SSE,151,8.0,20.0,69,0.00,,,0.22,301.000000,,2013-05-31 14:42:00,
2013-05-31 09:52:00,68.0,57.0,-100.00,SSE,151,8.0,20.0,69,0.00,,,0.22,301.000000,,2013-05-31 14:52:00,
2013-05-31 10:01:00,68.0,57.0,-100.00,SSE,151,8.0,20.0,69,0.00,,,0.22,301.000000,,2013-05-31 15:01:00,
2013-05-31 10:11:00,68.0,57.0,-100.00,SSE,151,8.0,20.0,69,0.00,,,0.22,301.000000,,2013-05-31 15:11:00,
2013-05-31 10:33:00,72.0,58.0,-100.00,SSE,149,8.0,21.0,61,0.00,,,0.22,580.000000,,2013-05-31 15:33:00,
2013-05-31 10:43:00,72.0,58.0,-100.00,SSE,149,8.0,21.0,61,0.00,,,0.22,580.000000,,2013-05-31 15:43:00,
2013-05-31 10:53:00,72.0,58.0,-100.00,SSE,149,8.0,21.0,61,0.00,,,0.22,580.000000,,2013-05-31 15:53:00,
2013-05-31 11:03:00,72.0,58.0,-100.00,SSE,149,8.0,21.0,61,0.00,,,0.22,580.000000,,2013-05-31 16:03:00,
2013-05-31 11:12:00,72.0,58.0,-100.00,SSE,149,8.0,21.0,61,0.00,,,0.22,580.000000,,2013-05-31 16:12:00,
2013-05-31 11:33:00,73.0,57.0,-100.00,SSE,159,10.0,25.0,57,0.00,,,0.22,702.000000,,2013-05-31 16:33:00,
2013-05-31 11:42:00,73.0,57.0,-100.00,SSE,159,10.0,25.0,57,0.00,,,0.22,702.000000,,2013-05-31 16:42:00,
2013-05-31 11:52:00,73.0,57.0,-100.00,SSE,159,10.0,25.0,57,0.00,,,0.22,702.000000,,2013-05-31 16:52:00,
2013-05-31 12:02:00,73.0,57.0,-100.00,SSE,159,10.0,25.0,57,0.00,,,0.22,702.000000,,2013-05-31 17:02:00,
2013-05-31 12:12:00,73.0,57.0,-100.00,SSE,159,10.0,25.0,57,0.00,,,0.22,702.000000,,2013-05-31 17:12:00,
2013-05-31 12:42:00,76.0,56.0,-100.00,SSE,166,10.0,23.0,50,0.00,,,0.22,599.000000,,2013-05-31 17:42:00,
2013-05-31 12:52:00,76.0,56.0,-100.00,SSE,166,10.0,23.0,50,0.00,,,0.22,599.000000,,2013-05-31 17:52:00,
2013-05-31 13:02:00,76.0,56.0,-100.00,SSE,166,10.0,23.0,50,0.00,,,0.22,599.000000,,2013-05-31 18:02:00,
2013-05-31 13:11:00,76.0,56.0,-100.00,SSE,166,10.0,23.0,50,0.00,,,0.22,599.000000,,2013-05-31 18:11:00,
2013-05-31 13:42:00,78.0,55.0,-100.00,South,171,12.0,25.0,45,0.00,,,0.22,690.000000,,2013-05-31 18:42:00,
2013-05-31 13:52:00,78.0,55.0,-100.00,South,171,12.0,25.0,45,0.00,,,0.22,690.000000,,2013-05-31 18:52:00,
2013-05-31 14:02:00,78.0,55.0,-100.00,South,171,12.0,25.0,45,0.00,,,0.22,690.000000,,2013-05-31 19:02:00,
2013-05-31 14:11:00,78.0,55.0,-100.00,South,171,12.0,25.0,45,0.00,,,0.22,690.000000,,2013-05-31 19:11:00,
2013-05-31 14:42:00,78.0,56.0,-100.00,SSE,160,11.0,31.0,46,0.00,,,0.22,580.000000,,2013-05-31 19:42:00,
2013-05-31 14:52:00,78.0,56.0,-100.00,SSE,160,11.0,31.0,46,0.00,,,0.22,580.000000,,2013-05-31 19:52:00,
2013-05-31 15:02:00,78.0,56.0,-100.00,SSE,160,11.0,31.0,46,0.00,,,0.22,580.000000,,2013-05-31 20:02:00,
2013-05-31 15:11:00,78.0,56.0,-100.00,SSE,160,11.0,31.0,46,0.00,,,0.22,580.000000,,2013-05-31 20:11:00,
2013-05-31 15:32:00,67.0,58.0,-100.00,SSW,192,5.0,23.0,73,0.08,,,0.30,132.000000,,2013-05-31 20:32:00,
2013-05-31 15:42:00,67.0,58.0,-100.00,SSW,192,5.0,23.0,73,0.08,,,0.30,132.000000,,2013-05-31 20:42:00,
2013-05-31 15:52:00,67.0,58.0,-100.00,SSW,192,5.0,23.0,73,0.08,,,0.30,132.000000,,2013-05-31 20:52:00,
2013-05-31 16:01:00,67.0,58.0,-100.00,SSW,192,5.0,23.0,73,0.08,,,0.30,132.000000,,2013-05-31 21:01:00,
2013-05-31 16:11:00,67.0,58.0,-100.00,SSW,192,5.0,23.0,73,0.08,,,0.30,132.000000,,2013-05-31 21:11:00,
2013-05-31 16:33:00,62.0,55.0,-100.00,South,185,7.0,23.0,78,0.17,,,0.47,17.000000,,2013-05-31 21:33:00,
2013-05-31 16:43:00,62.0,55.0,-100.00,South,185,7.0,23.0,78,0.17,,,0.47,17.000000,,2013-05-31 21:43:00,
2013-05-31 16:54:00,62.0,55.0,-100.00,South,185,7.0,23.0,78,0.17,,,0.47,17.000000,,2013-05-31 21:54:00,
2013-05-31 17:02:00,62.0,55.0,-100.00,South,185,7.0,23.0,78,0.17,,,0.47,17.000000,,2013-05-31 22:02:00,
2013-05-31 17:12:00,62.0,55.0,-100.00,South,185,7.0,23.0,78,0.17,,,0.47,17.000000,,2013-05-31 22:12:00,
2013-05-31 17:33:00,59.0,55.0,-100.00,ESE,102,2.0,26.0,88,0.03,,,0.50,16.000000,,2013-05-31 22:33:00,
2013-05-31 17:42:00,59.0,55.0,-100.00,ESE,102,2.0,26.0,88,0.03,,,0.50,16.000000,,2013-05-31 22:42:00,
2013-05-31 17:53:00,59.0,55.0,-100.00,ESE,102,2.0,26.0,88,0.03,,,0.50,16.000000,,2013-05-31 22:53:00,
2013-05-31 18:02:00,59.0,55.0,-100.00,ESE,102,2.0,26.0,88,0.03,,,0.50,16.000000,,2013-05-31 23:02:00,
2013-05-31 18:12:00,59.0,55.0,-100.00,ESE,102,2.0,26.0,88,0.03,,,0.50,16.000000,,2013-05-31 23:12:00,
2013-05-31 18:32:00,62.0,57.0,-100.00,East,90,2.0,5.0,84,0.00,,,0.50,160.000000,,2013-05-31 23:32:00,
2013-05-31 18:42:00,62.0,57.0,-100.00,East,90,2.0,5.0,84,0.00,,,0.50,160.000000,,2013-05-31 23:42:00,
2013-05-31 18:52:00,62.0,57.0,-100.00,East,90,2.0,5.0,84,0.00,,,0.50,160.000000,,2013-05-31 23:52:00,
2013-05-31 19:01:00,62.0,57.0,-100.00,East,90,2.0,5.0,84,0.00,,,0.50,160.000000,,2013-06-01 00:01:00,
2013-05-31 19:11:00,62.0,57.0,-100.00,East,90,2.0,5.0,84,0.00,,,0.50,160.000000,,2013-06-01 00:11:00,
2013-05-31 19:32:00,63.0,58.0,-100.00,ENE,74,3.0,5.0,84,0.00,,,0.50,164.000000,,2013-06-01 00:32:00,
2013-05-31 19:42:00,63.0,58.0,-100.00,ENE,74,3.0,5.0,84,0.00,,,0.50,164.000000,,2013-06-01 00:42:00,
2013-05-31 19:52:00,63.0,58.0,-100.00,ENE,74,3.0,5.0,84,0.00,,,0.50,164.000000,,2013-06-01 00:52:00,
2013-05-31 20:01:00,63.0,58.0,-100.00,ENE,74,3.0,5.0,84,0.00,,,0.50,164.000000,,2013-06-01 01:01:00,
2013-05-31 20:11:00,63.0,58.0,-100.00,ENE,74,3.0,5.0,84,0.00,,,0.50,164.000000,,2013-06-01 01:11:00,
2013-05-31 20:32:00,62.0,59.0,-100.00,ENE,67,1.0,5.0,89,0.00,,,0.50,69.000000,,2013-06-01 01:32:00,
2013-05-31 20:42:00,62.0,59.0,-100.00,ENE,67,1.0,5.0,89,0.00,,,0.50,69.000000,,2013-06-01 01:42:00,
2013-05-31 20:52:00,62.0,59.0,-100.00,ENE,67,1.0,5.0,89,0.00,,,0.50,69.000000,,2013-06-01 01:52:00,
2013-05-31 21:01:00,62.0,59.0,-100.00,ENE,67,1.0,5.0,89,0.00,,,0.50,69.000000,,2013-06-01 02:01:00,
2013-05-31 21:11:00,62.0,59.0,-100.00,ENE,67,1.0,5.0,89,0.00,,,0.50,69.000000,,2013-06-01 02:11:00,
2013-05-31 21:32:00,62.0,59.0,-100.00,ESE,107,1.0,8.0,91,0.00,,,0.50,10.000000,,2013-06-01 02:32:00,
2013-05-31 21:42:00,62.0,59.0,-100.00,ESE,107,1.0,8.0,91,0.00,,,0.50,10.000000,,2013-06-01 02:42:00,
2013-05-31 21:52:00,62.0,59.0,-100.00,ESE,107,1.0,8.0,91,0.00,,,0.50,10.000000,,2013-06-01 02:52:00,
2013-05-31 22:02:00,62.0,59.0,-100.00,ESE,107,1.0,8.0,91,0.00,,,0.50,10.000000,,2013-06-01 03:02:00,
2013-05-31 22:11:00,62.0,59.0,-100.00,ESE,107,1.0,8.0,91,0.00,,,0.50,10.000000,,2013-06-01 03:11:00,
2013-05-31 22:33:00,60.0,57.0,-100.00,ESE,108,2.0,5.0,90,0.00,,,0.29,0.000000,,2013-06-01 03:33:00,
2013-05-31 22:43:00,60.0,57.0,-100.00,ESE,108,2.0,5.0,90,0.00,,,0.29,0.000000,,2013-06-01 03:43:00,
2013-05-31 22:53:00,60.0,57.0,-100.00,ESE,108,2.0,5.0,90,0.00,,,0.29,0.000000,,2013-06-01 03:53:00,
2013-05-31 23:03:00,60.0,57.0,-100.00,ESE,108,2.0,5.0,90,0.00,,,0.29,0.000000,,2013-06-01 04:03:00,
2013-05-31 23:12:00,60.0,57.0,-100.00,ESE,108,2.0,5.0,90,0.00,,,0.29,0.000000,,2013-06-01 04:12:00,
2013-05-31 23:33:00,57.0,55.0,-100.00,ESE,106,1.0,6.0,93,0.00,,,0.28,0.000000,,2013-06-01 04:33:00,
2013-05-31 23:42:00,57.0,55.0,-100.00,ESE,106,1.0,6.0,93,0.00,,,0.28,0.000000,,2013-06-01 04:42:00,
2013-05-31 23:53:00,57.0,55.0,-100.00,ESE,106,1.0,6.0,93,0.00,,,0.28,0.000000,,2013-06-01 04:53:00,